TimeAST,TemperatureF,Dew PointF,Humidity,Sea Level PressureIn,VisibilityMPH,Wind Direction,Wind SpeedMPH,Gust SpeedMPH,PrecipitationIn,Events,Conditions,WindDirDegrees,DateUTC
12:00 AM,80.6,75.2,84,29.89,-9999.0,North,-9999.0,-,N/A,,Unknown,0,2011-11-01 04:00:00
1:00 AM,80.6,75.2,84,29.86,6.2,Calm,Calm,-,N/A,,Partly Cloudy,0,2011-11-01 05:00:00
2:00 AM,80,75,81,,19,Calm,Calm,,,,Clear,10,2011-11-01 06:00:00
2:00 AM,78.8,75.2,89,29.83,-9999.0,North,-9999.0,-,N/A,,Unknown,0,2011-11-01 06:00:00
3:00 AM,80.6,75.2,84,29.83,-9999.0,North,-9999.0,-,N/A,,Unknown,0,2011-11-01 07:00:00
4:00 AM,80.6,75.2,84,29.83,-9999.0,North,-9999.0,-,N/A,,Unknown,0,2011-11-01 08:00:00
5:00 AM,78.8,75.2,89,29.83,-9999.0,North,-9999.0,-,N/A,,Unknown,0,2011-11-01 09:00:00
6:00 AM,78.8,73.4,83,29.86,-9999.0,Calm,Calm,-,N/A,,Unknown,0,2011-11-01 10:00:00
7:00 AM,78.8,75.2,89,29.86,-9999.0,North,-9999.0,-,N/A,,Unknown,0,2011-11-01 11:00:00
8:00 AM,76,74,91,29.91,1,Calm,Calm,,,Rain,Light Rain Showers,,2011-11-01 12:00:00
8:00 AM,75.2,73.4,94,29.89,1.2,ENE,12.7,-,N/A,Rain,Heavy Rain,70,2011-11-01 12:00:00
9:00 AM,75.2,73.4,94,29.89,6.2,SSE,12.7,-,N/A,,Mostly Cloudy,160,2011-11-01 13:00:00
10:00 AM,77.0,75.2,94,29.89,6.2,East,9.2,-,N/A,,Scattered Clouds,100,2011-11-01 14:00:00
11:00 AM,82,76,78,29.90,22,East,10.4,,,,Partly Cloudy,100,2011-11-01 15:00:00
11:00 AM,82.4,77.0,84,29.89,6.2,East,10.4,-,N/A,,Scattered Clouds,100,2011-11-01 15:00:00
12:00 PM,84.2,75.2,74,29.86,-9999.0,North,-9999.0,-,N/A,,Unknown,0,2011-11-01 16:00:00
1:00 PM,86.0,77.0,74,29.86,6.2,East,10.4,-,N/A,,Scattered Clouds,100,2011-11-01 17:00:00
2:00 PM,86,76,66,,6,Calm,Calm,,,,Clear,,2011-11-01 18:00:00
2:00 PM,87.8,75.2,66,29.80,6.2,ESE,10.4,-,N/A,,Partly Cloudy,120,2011-11-01 18:00:00
3:00 PM,87.8,77.0,70,29.80,6.2,East,11.5,-,N/A,,Partly Cloudy,100,2011-11-01 19:00:00
4:00 PM,87.8,77.0,70,29.80,-9999.0,North,-9999.0,-,N/A,,Unknown,0,2011-11-01 20:00:00
5:00 PM,85,76,69,29.82,25,East,10.4,,,,Partly Cloudy,100,2011-11-01 21:00:00
5:00 PM,86.0,77.0,74,29.80,6.2,East,10.4,-,N/A,,Scattered Clouds,100,2011-11-01 21:00:00
6:00 PM,82.4,75.2,79,29.83,-9999.0,North,-9999.0,-,N/A,,Unknown,0,2011-11-01 22:00:00
7:00 PM,82.4,77.0,84,29.83,-9999.0,North,-9999.0,-,N/A,,Unknown,0,2011-11-01 23:00:00
8:00 PM,82,76,78,29.87,25,East,6.9,,,,Partly Cloudy,80,2011-11-02 00:00:00
8:00 PM,82.4,77.0,84,29.86,6.2,East,8.1,-,N/A,,Scattered Clouds,90,2011-11-02 00:00:00
9:00 PM,82.4,75.2,79,29.86,-9999.0,North,-9999.0,-,N/A,,Unknown,0,2011-11-02 01:00:00
10:00 PM,82.4,75.2,79,29.89,-9999.0,North,-9999.0,-,N/A,,Unknown,0,2011-11-02 02:00:00
11:00 PM,82,76,78,,6,Calm,Calm,,,,Clear,,2011-11-02 03:00:00
11:00 PM,82.4,77.0,84,29.86,-9999.0,North,-9999.0,-,N/A,,Unknown,0,2011-11-02 03:00:00